[[{"header":{"parameterUnit":"m.s-1","parameterCategory":2,"la1":30.2991,"la2":30.254,"lo1":-89.0895,"lo2":-89.0444,"dy":0.0017,"dx":0.0017,"nx":28,"ny":28,"refTime":"2024-08-06T03:00:00:Z","depth":"0","parameterNumber":2,"parameterNumberName":"U-component_of_CURRENTS"},"data":[0,0,0,0,0,0,0,0,0,0,0,0,0,0,0,0,0,0,0,0,0,0,0,0,0,0,0,0,0,0,0,0,0,0,0,0,0,0,0,0,0,0,0,0,0,0,0,0,0,0,0,0,0,0,0,0,0,0,0.3402,0.3403,0,0.3538,0.3539,0.354,0.3569,0.3568,0.3567,0.3567,0.3383,0.3379,0.3375,0,0,0,0,0,0,0,0,0,0,0,0,0,0.3284,0.3285,0.3402,0.3404,0.3405,0.3537,0.3539,0.3541,0.3569,0.3568,0.3567,0.3566,0.3385,0.338,0.3375,0,0,0,0,0,0,0,0,0,0,0,0,0,0.3367,0.3285,0.3401,0.3437,0.3442,0.3537,0.3539,0.3541,0.3569,0.3568,0.3567,0.3566,0.3386,0.338,0.3374,0.3361,0,0,0.3355,0.3353,0,0,0,0,0,0,0,0,0.3362,0.3371,0.343,0.3435,0.344,0.3537,0.3431,0.3466,0.357,0.3519,0.3567,0.3565,0.3407,0.3399,0.3429,0.3352,0.3345,0.3355,0.3351,0.3348,0.3347,0,0,0,0,0,0,0,0.3356,0.3366,0.3453,0.3432,0.3438,0.3487,0.3496,0.3439,0.3461,0.3523,0.3526,0.3545,0.3407,0.3436,0.3424,0.3342,0.3355,0.3349,0.3346,0.3343,0.3298,0.3301,0,0,0,0,0,0,0.3339,0.336,0.3449,0.3458,0.3399,0.3489,0.35,0.3505,0.3468,0.3465,0.3546,0.3546,0.3447,0.3432,0.3417,0.3425,0.3348,0.3343,0.3339,0.3296,0.3299,0.3302,0,0,0,0,0,0,0.3335,0.3345,0.3444,0.3414,0.343,0.3492,0.3499,0.3509,0.3545,0.349,0.3479,0.3572,0.3445,0.3426,0.3392,0.3416,0.334,0.3334,0.3293,0.3297,0.33,0.3421,0,0,0,0,0,0,0.3331,0.3342,0.3348,0.3413,0.3431,0.3505,0.3501,0.3512,0.3559,0.356,0.3508,0.3491,0.3443,0.3402,0.3386,0.3406,0.3329,0.329,0.3295,0.3299,0.3414,0.3429,0.3441,0,0,0,0,0,0.3326,0.3357,0.3347,0.3358,0.3433,0.3507,0.3522,0.356,0.3561,0.3586,0.3559,0.3492,0.3421,0.3399,0.3379,0.3398,0.3288,0.3293,0.3299,0.3408,0.3426,0.3441,0,0,0,0,0,0,0.3324,0.3365,0.3355,0.3397,0.3441,0.3512,0.3551,0.357,0.358,0.3568,0.3512,0.3494,0.348,0.3428,0.3405,0.3406,0.3347,0.335,0.3437,0.3453,0.3466,0.3459,0.3324,0,0,0,0,0,0.3318,0.3342,0.3386,0.3421,0.3441,0.3492,0.3528,0.355,0.357,0.3576,0.3546,0.3511,0.3493,0.3462,0.3433,0.3415,0.3377,0.3421,0.3435,0.3447,0.3432,0.3421,0.3431,0.332,0.332,0.332,0,0,0.3331,0.3355,0.337,0.342,0.3457,0.3499,0.3511,0.357,0.36,0.3544,0.3567,0.3551,0.3503,0.3504,0.3492,0.3455,0.3467,0.3454,0.3464,0.3442,0.3428,0.3438,0.3447,0.3324,0.3323,0.3323,0,0,0.3374,0.3381,0.3412,0.3442,0.3492,0.3523,0.3538,0.36,0.3619,0.3642,0.3623,0.3633,0.3586,0.3582,0.3565,0.3632,0.3547,0.3618,0.3661,0.3653,0.3661,0.3667,0.3666,0.3671,0.3615,0.3615,0.3615,0,0.3387,0.3403,0.3438,0.3471,0.3487,0.353,0.3556,0.3603,0.3647,0.3645,0.3652,0.365,0.3631,0.363,0.3679,0.366,0.3633,0.3601,0.3668,0.3674,0.3678,0.3674,0.3679,0.3622,0.3621,0.362,0.362,0,0.3432,0.3447,0.3475,0.3506,0.3543,0.3573,0.362,0.3653,0.3675,0.3703,0.372,0.3731,0.3717,0.3742,0.3733,0.3761,0.3726,0.3695,0.3622,0.3696,0.3689,0.3691,0.3631,0.3629,0.3627,0.3625,0,0,0.3413,0.3489,0.3481,0.3484,0.3541,0.357,0.3622,0.3657,0.3661,0.3729,0.3731,0.3791,0.3797,0.3783,0.3784,0.3802,0.3861,0.3769,0.3765,0.3759,0.3837,0.3653,0.3637,0.3828,0.3828,0.3828,0.3829,0,0.3411,0.3465,0.3494,0.352,0.3541,0.3574,0.3605,0.3648,0.3678,0.37,0.3746,0.3757,0.381,0.3805,0.3844,0.3837,0.3866,0.3863,0.3771,0.3769,0.3588,0.3633,0.3439,0.3408,0.3831,0.3831,0.3831,0,0.3389,0.3429,0.3461,0.3487,0.3492,0.3515,0.3522,0.3562,0.3615,0.3635,0.368,0.3705,0.377,0.3795,0.3845,0.3831,0.3851,0.3862,0.386,0.3635,0.3586,0.3396,0.3394,0.3343,0.3834,0.3833,0.3833,0,0.3309,0.3369,0.3383,0.3397,0.3464,0.3459,0.3485,0.3532,0.3538,0.3595,0.3596,0.3666,0.3687,0.3735,0.3805,0.3812,0.3834,0.3835,0.3695,0.3684,0.3469,0.3435,0.3387,0.3867,0.3867,0.3867,0.3867,0,0.3254,0.326,0.3345,0.3347,0.3338,0.3401,0.338,0.3421,0.3455,0.3451,0.3554,0.3555,0.3671,0.3706,0.3772,0.3727,0.381,0.3694,0.366,0.3509,0.348,0.3381,0.3368,0.3867,0.3867,0.3867,0.3867,0,0.3176,0.323,0.3246,0.3298,0.3303,0.3301,0.332,0.3315,0.3359,0.3356,0.3374,0.3467,0.3497,0.3591,0.3656,0.3643,0.352,0.3618,0.3435,0.3376,0.3129,0.3129,0.2877,0.2806,0.3428,0.3423,0.3419,0,0.3158,0.3161,0.3193,0.3193,0.3214,0.3221,0.3219,0.3264,0.3259,0.3293,0.3282,0.332,0.3318,0.3335,0.3325,0.3338,0.3344,0.3158,0.3128,0.3068,0.3048,0.2971,0.2929,0.2931,0.2924,0.2918,0.2912,0,0.3116,0.3116,0.3128,0.3113,0.3107,0.3097,0.3097,0.3075,0.3119,0.3107,0.3075,0.3069,0.3056,0.2948,0.2951,0.2957,0.2951,0.302,0.3011,0.2674,0.2535,0.2466,0.301,0.2857,0.2862,0.2866,0.2869,0.2872,0.3069,0.3046,0.3031,0.3,0.3002,0.2947,0.2874,0.2888,0.2835,0.2757,0.285,0.2753,0.269,0.2626,0.2613,0.2448,0.2519,0.2378,0.2398,0.234,0.2195,0.2597,0.236,0.2363,0.2365,0.2367,0.2369,0,0.2942,0.292,0.2916,0.2844,0.2781,0.2812,0.2758,0.2656,0.2542,0.2539,0.2471,0.2326,0.2195,0.2168,0.1995,0.1874,0.1853,0.1845,0.1757,0.1765,0.2166,0.207,0.1691,0.1691,0.1691,0.1691,0.1691,0.1691,0.2863,0.2783,0.2758,0.2608,0.257,0.2405,0.2332,0.224,0.2195,0.2012,0.1894,0.1873,0.1852,0.1705,0.1548,0.1528,0.1477,0.1309,0.1424,0.1785,0.184,0.1893,0.1802,0.1373,0.1373,0.0932,0.0929,0.0926]},{"header":{"parameterUnit":"m.s-1","parameterCategory":2,"la1":30.2991,"la2":30.254,"lo1":-89.0895,"lo2":-89.0444,"dy":0.0017,"dx":0.0017,"nx":28,"ny":28,"refTime":"2024-08-06T03:00:00:Z","depth":"0","parameterNumber":3,"parameterNumberName":"V-component_of_CURRENTS"},"data":[0,0,0,0,0,0,0,0,0,0,0,0,0,0,0,0,0,0,0,0,0,0,0,0,0,0,0,0,0,0,0,0,0,0,0,0,0,0,0,0,0,0,0,0,0,0,0,0,0,0,0,0,0,0,0,0,0,0,-0.0185,-0.0185,0,-0.0202,-0.0202,-0.0202,-0.0221,-0.0222,-0.0222,-0.0222,-0.0164,-0.0162,-0.016,0,0,0,0,0,0,0,0,0,0,0,0,0,-0.021,-0.0209,-0.0185,-0.0185,-0.0185,-0.0202,-0.0202,-0.0202,-0.0221,-0.0222,-0.0222,-0.0222,-0.0164,-0.0162,-0.016,0,0,0,0,0,0,0,0,0,0,0,0,0,-0.0209,-0.0208,-0.0185,-0.0197,-0.0199,-0.0202,-0.0202,-0.0202,-0.0221,-0.0222,-0.0222,-0.0223,-0.0165,-0.0162,-0.016,-0.0132,0,0,-0.0151,-0.015,0,0,0,0,0,0,0,0,-0.0209,-0.0208,-0.0195,-0.0196,-0.0198,-0.0211,-0.019,-0.0175,-0.0221,-0.0212,-0.0222,-0.0223,-0.0173,-0.0169,-0.0171,-0.0129,-0.0126,-0.0151,-0.0149,-0.0148,-0.0147,0,0,0,0,0,0,0,-0.0209,-0.0208,-0.0191,-0.0195,-0.0197,-0.0216,-0.0216,-0.0187,-0.0187,-0.0213,-0.0214,-0.0217,-0.0173,-0.0174,-0.017,-0.0125,-0.0151,-0.0148,-0.0147,-0.0145,-0.0066,-0.0065,0,0,0,0,0,0,-0.0205,-0.0207,-0.019,-0.0191,-0.0206,-0.0215,-0.0215,-0.0205,-0.0189,-0.0188,-0.0217,-0.0218,-0.0179,-0.0173,-0.0168,-0.0125,-0.0148,-0.0145,-0.0144,-0.0066,-0.0066,-0.0065,0,0,0,0,0,0,-0.0206,-0.0203,-0.0189,-0.0201,-0.0201,-0.0214,-0.0203,-0.0205,-0.0206,-0.0193,-0.019,-0.0215,-0.0179,-0.0172,-0.015,-0.0123,-0.0144,-0.0141,-0.0067,-0.0066,-0.0065,-0.0045,0,0,0,0,0,0,-0.0206,-0.0203,-0.0195,-0.02,-0.02,-0.0186,-0.0203,-0.0205,-0.0208,-0.021,-0.019,-0.0186,-0.0179,-0.0154,-0.0147,-0.012,-0.0139,-0.0067,-0.0066,-0.0066,-0.0046,-0.0044,-0.0041,0,0,0,0,0,-0.0207,-0.0198,-0.0194,-0.0192,-0.0188,-0.0186,-0.0187,-0.0199,-0.0207,-0.0202,-0.0199,-0.0187,-0.0144,-0.0152,-0.0143,-0.0114,-0.0068,-0.0067,-0.0066,-0.0047,-0.0044,-0.0042,0,0,0,0,0,0,-0.0205,-0.0199,-0.0195,-0.0183,-0.0181,-0.0189,-0.019,-0.0195,-0.0189,-0.019,-0.0181,-0.0176,-0.0147,-0.0136,-0.0145,-0.0092,-0.0103,-0.01,-0.0091,-0.0088,-0.0086,-0.005,-0.0137,0,0,0,0,0,-0.0199,-0.0191,-0.0185,-0.0177,-0.0173,-0.0179,-0.018,-0.0183,-0.0182,-0.0181,-0.0169,-0.0155,-0.0136,-0.0119,-0.0103,-0.0067,-0.0049,-0.0045,-0.0043,-0.0041,-0.0006,0.0025,0.0034,-0.0062,-0.0062,-0.0062,0,0,-0.0202,-0.0194,-0.0192,-0.0177,-0.0177,-0.0163,-0.0181,-0.0178,-0.016,-0.0172,-0.0146,-0.0145,-0.0128,-0.0098,-0.0082,-0.0083,-0.0009,-0.0039,-0.0038,-0.0004,0.0027,0.0037,0.0045,-0.0061,-0.0061,-0.0062,0,0,-0.0204,-0.0188,-0.0183,-0.0171,-0.0162,-0.0157,-0.0153,-0.0151,-0.0142,-0.012,-0.0127,-0.0107,-0.0081,-0.0059,-0.0046,-0.0015,-0.0003,-0.0019,0.0034,0.0062,0.0071,0.0079,0.0093,0.0102,-0.0012,-0.0012,-0.0012,0,-0.0212,-0.0187,-0.0182,-0.0166,-0.0151,-0.015,-0.013,-0.0118,-0.0109,-0.0082,-0.0107,-0.0056,-0.0053,0.0005,0.0004,-0.0004,0.0003,0.002,0.0067,0.0076,0.0084,0.0096,0.0106,-0.0011,-0.0011,-0.0011,-0.0011,0,-0.0201,-0.0179,-0.0173,-0.0145,-0.0127,-0.011,-0.0085,-0.0059,-0.0049,-0.0032,0.0019,0.0016,0.0056,0.0048,0.0035,0.0097,0.0079,0.006,0.0063,0.0095,0.0105,0.0115,-0.0009,-0.001,-0.001,-0.001,0,0,-0.0217,-0.0178,-0.0171,-0.0137,-0.0107,-0.0081,-0.004,0.0015,0.007,0.0073,0.0141,0.0151,0.0155,0.0172,0.0158,0.0178,0.0215,0.0144,0.0145,0.0164,0.0269,0.0222,0.0228,0.0198,0.02,0.0202,0.0246,0,-0.0207,-0.0167,-0.0149,-0.0091,-0.0057,-0.0023,0.0028,0.0081,0.0121,0.0186,0.0203,0.0251,0.0201,0.0221,0.0235,0.0226,0.0247,0.0205,0.0233,0.0234,0.0194,0.0241,0.0242,0.028,0.0256,0.0258,0.0259,0,-0.0185,-0.0155,-0.0107,-0.0025,-0.0005,0.003,0.0144,0.0187,0.0275,0.0309,0.0359,0.0367,0.041,0.0351,0.0378,0.0349,0.0323,0.0305,0.0306,0.0274,0.0208,0.0249,0.0299,0.026,0.0274,0.0273,0.0272,0,-0.0156,-0.0109,-0.0062,-0.0038,0.004,0.0087,0.0135,0.0229,0.0303,0.0391,0.0449,0.0488,0.052,0.0502,0.0455,0.0422,0.0473,0.0422,0.0362,0.0357,0.0375,0.0368,0.0404,0.0457,0.0456,0.0456,0.0456,0,-0.0124,-0.0081,-0.0042,-0.0002,0.0089,0.0123,0.0241,0.0301,0.04,0.0505,0.0512,0.0592,0.0559,0.0574,0.0512,0.0475,0.0521,0.04,0.038,0.0377,0.037,0.0348,0.0314,0.0458,0.0458,0.0457,0.0457,0,-0.0084,-0.0072,0.0008,0.0084,0.0111,0.0186,0.0306,0.0399,0.0467,0.0602,0.0633,0.0693,0.0707,0.0662,0.0641,0.0556,0.049,0.0488,0.0476,0.0453,0.0332,0.0298,0.0337,0.0312,0.0436,0.0435,0.0435,0,-0.0057,-0.0021,0.0078,0.0139,0.0176,0.0274,0.0357,0.0438,0.0534,0.0667,0.0738,0.0785,0.0834,0.0776,0.0656,0.0564,0.0503,0.0476,0.0414,0.0355,0.0304,0.0286,0.026,0.044,0.0439,0.0439,0.0439,0,0.0016,0.0048,0.012,0.0223,0.0312,0.0411,0.0517,0.0595,0.0698,0.0794,0.0903,0.0942,0.0895,0.0816,0.0673,0.0584,0.0443,0.0461,0.0427,0.0345,0.0308,0.0263,0.0364,0.0435,0.0435,0.0436,0.0436,0.0436,0.01,0.015,0.0236,0.0332,0.0425,0.0523,0.06,0.0706,0.0831,0.0956,0.0997,0.1064,0.0955,0.0765,0.0641,0.0422,0.042,0.0345,0.0319,0.0315,0.0267,0.0346,0.0368,0.0367,0.0367,0.0367,0.0367,0,0.0213,0.0244,0.0335,0.0448,0.0536,0.0566,0.0695,0.0764,0.0882,0.1009,0.1088,0.1093,0.0944,0.0768,0.0488,0.0327,0.0267,0.0243,0.0241,0.0226,0.0332,0.0307,0.0285,0.0285,0.0286,0.0286,0.0286,0.0286,0.0288,0.0369,0.0379,0.0511,0.0579,0.0676,0.0734,0.083,0.0929,0.1049,0.1111,0.1152,0.1065,0.064,0.0348,0.0258,0.0171,0.0133,0.0095,0.0177,0.0186,0.0194,0.0164,0.0113,0.0112,0.0014,0.0013,0.0012]}],[{"header":{"parameterUnit":"m.s-1","parameterCategory":2,"la1":30.2991,"la2":30.254,"lo1":-89.0895,"lo2":-89.0444,"dy":0.0017,"dx":0.0017,"nx":28,"ny":28,"refTime":"2024-08-06T03:00:00:Z","depth":"2","parameterNumber":2,"parameterNumberName":"U-component_of_CURRENTS"},"data":[0,0,0,0,0,0,0,0,0,0,0,0,0,0,0,0,0,0,0,0,0,0,0,0,0,0,0,0,0,0,0,0,0,0,0,0,0,0,0,0,0,0,0,0,0,0,0,0,0,0,0,0,0,0,0,0,0,0,0.2279,0.2279,0,0.2208,0.2207,0.2205,0.2175,0.2176,0.2177,0.2178,0.2238,0.2239,0.2239,0,0,0,0,0,0,0,0,0,0,0,0,0,0.2215,0.2216,0.2279,0.2279,0.228,0.2209,0.2207,0.2204,0.2174,0.2176,0.2177,0.2179,0.2238,0.2239,0.2239,0,0,0,0,0,0,0,0,0,0,0,0,0,0.2192,0.2217,0.2279,0.2265,0.2264,0.2209,0.2206,0.2204,0.2174,0.2176,0.2178,0.218,0.2238,0.2239,0.2239,0.2205,0,0,0.2241,0.2241,0,0,0,0,0,0,0,0,0.2194,0.2193,0.2267,0.2266,0.2265,0.2213,0.2207,0.2215,0.2174,0.2195,0.2178,0.2181,0.2249,0.2249,0.2211,0.2208,0.221,0.2241,0.2241,0.2242,0.2242,0,0,0,0,0,0,0,0.2195,0.2195,0.2238,0.2268,0.2266,0.2204,0.2203,0.2205,0.2205,0.2193,0.2194,0.2206,0.2248,0.221,0.2213,0.2211,0.2241,0.2242,0.2242,0.2242,0.2343,0.2345,0,0,0,0,0,0,0.2237,0.2197,0.2241,0.2238,0.2248,0.2206,0.2204,0.2218,0.2202,0.2204,0.2204,0.2205,0.2208,0.2212,0.2216,0.2327,0.2242,0.2242,0.2243,0.2341,0.2344,0.2346,0,0,0,0,0,0,0.2235,0.2241,0.2244,0.2225,0.2223,0.2208,0.2221,0.2216,0.2242,0.2211,0.2213,0.2246,0.221,0.2215,0.2284,0.2324,0.2243,0.2243,0.2338,0.2342,0.2345,0.2453,0,0,0,0,0,0,0.2234,0.2241,0.226,0.2229,0.2227,0.2261,0.2221,0.2213,0.2248,0.225,0.2247,0.225,0.2212,0.2284,0.2285,0.2323,0.2244,0.2335,0.234,0.2344,0.2446,0.2459,0.2471,0,0,0,0,0,0.2231,0.2251,0.2261,0.2267,0.2256,0.2264,0.2256,0.224,0.225,0.2269,0.2282,0.2253,0.2311,0.2287,0.2287,0.2327,0.2333,0.2339,0.2344,0.2441,0.2457,0.2471,0,0,0,0,0,0,0.2235,0.225,0.2261,0.2287,0.2304,0.2265,0.2273,0.2281,0.2296,0.2312,0.2289,0.2293,0.2367,0.2339,0.2313,0.2369,0.2315,0.232,0.2389,0.2403,0.2416,0.2454,0.2244,0,0,0,0,0,0.2249,0.2264,0.2284,0.2306,0.2324,0.2314,0.2318,0.2322,0.2333,0.234,0.235,0.2358,0.2373,0.2389,0.2394,0.243,0.2407,0.2454,0.2467,0.2477,0.251,0.25,0.2514,0.2363,0.2363,0.2363,0,0,0.2256,0.2267,0.2276,0.2307,0.2309,0.234,0.2319,0.2352,0.2389,0.2348,0.2411,0.2415,0.2398,0.2436,0.2464,0.2427,0.2509,0.2484,0.2493,0.2521,0.2507,0.2522,0.2535,0.2367,0.2366,0.2366,0,0,0.2275,0.2296,0.2322,0.235,0.239,0.238,0.242,0.2435,0.2459,0.2516,0.2501,0.2551,0.2559,0.2557,0.2553,0.2644,0.2584,0.2637,0.2719,0.2709,0.2721,0.2732,0.272,0.2729,0.263,0.263,0.263,0,0.2317,0.2314,0.2332,0.2377,0.2394,0.2421,0.2459,0.2488,0.253,0.2542,0.2564,0.2608,0.2615,0.2653,0.2693,0.2674,0.2652,0.266,0.2724,0.2734,0.2743,0.2729,0.2737,0.2636,0.2635,0.2635,0.2634,0,0.2327,0.2361,0.2382,0.2437,0.2469,0.2499,0.2557,0.2589,0.2624,0.2644,0.2724,0.275,0.2753,0.2781,0.2774,0.2839,0.2799,0.2748,0.2684,0.2765,0.2744,0.2751,0.2644,0.2642,0.2641,0.2639,0,0,0.235,0.2387,0.2402,0.2425,0.2496,0.2519,0.2584,0.2619,0.2651,0.2737,0.2783,0.2865,0.2876,0.288,0.2885,0.2927,0.2987,0.2884,0.288,0.287,0.2965,0.2778,0.2766,0.2936,0.2938,0.2939,0.2925,0,0.2363,0.2432,0.2433,0.2494,0.2534,0.2556,0.2608,0.266,0.2699,0.2758,0.283,0.2891,0.2912,0.2932,0.2977,0.2975,0.3011,0.2997,0.2893,0.2891,0.2711,0.277,0.258,0.2536,0.293,0.2931,0.2932,0,0.2342,0.2405,0.2462,0.2506,0.2525,0.2565,0.2598,0.2661,0.2741,0.2773,0.2841,0.2885,0.2976,0.2993,0.3038,0.3019,0.302,0.304,0.3036,0.2834,0.2715,0.2521,0.2532,0.2942,0.2941,0.294,0.294,0,0.2311,0.2389,0.242,0.2451,0.2537,0.2548,0.2596,0.2667,0.2687,0.2806,0.2808,0.2912,0.2956,0.2992,0.301,0.3019,0.3057,0.3031,0.2877,0.2862,0.2669,0.2633,0.3088,0.3088,0.3088,0.3088,0.3088,0,0.2281,0.2313,0.2411,0.2455,0.2495,0.2568,0.2592,0.2652,0.2707,0.2724,0.2831,0.2844,0.2965,0.2976,0.3006,0.2933,0.3012,0.2915,0.285,0.2698,0.2666,0.2991,0.298,0.3088,0.3088,0.3088,0.3088,0,0.2215,0.2281,0.2342,0.2455,0.2484,0.2538,0.2578,0.2578,0.2655,0.2676,0.2709,0.2787,0.2791,0.2856,0.2915,0.2875,0.2863,0.2824,0.264,0.2553,0.2689,0.2684,0.265,0.2643,0.2638,0.2633,0.2629,0,0.2194,0.2203,0.2343,0.2378,0.2425,0.2487,0.2498,0.257,0.2552,0.2609,0.2598,0.264,0.2607,0.26,0.2584,0.2555,0.2697,0.2363,0.235,0.2706,0.2647,0.2651,0.2654,0.2152,0.2144,0.2138,0.2133,0,0.215,0.2178,0.2247,0.231,0.2348,0.2361,0.2391,0.2351,0.2408,0.2388,0.2361,0.2356,0.2353,0.223,0.2202,0.2178,0.2345,0.2229,0.2645,0.2267,0.2227,0.2172,0.2193,0.2078,0.2084,0.2088,0.2091,0.2093,0.2112,0.2117,0.217,0.2197,0.2242,0.2211,0.2151,0.2139,0.2083,0.2019,0.2106,0.2023,0.2055,0.1872,0.1804,0.1774,0.1945,0.1902,0.1926,0.1956,0.1876,0.1825,0.1587,0.159,0.1592,0.1594,0.1596,0,0.2009,0.2001,0.2028,0.2052,0.2005,0.2081,0.2024,0.1916,0.1788,0.18,0.1743,0.1561,0.1455,0.1492,0.1347,0.1327,0.1384,0.1286,0.1371,0.1424,0.1472,0.1373,0.0949,0.0947,0.0945,0.0944,0,0,0.1955,0.1913,0.1892,0.1797,0.1793,0.1681,0.1619,0.1517,0.1475,0.1353,0.1292,0.1375,0.1424,0.1166,0.113,0.1014,0.1222,0.0973,0.1491,0.1644,0.169,0.1819,0.1723,0,0,0,0,0]},{"header":{"parameterUnit":"m.s-1","parameterCategory":2,"la1":30.2991,"la2":30.254,"lo1":-89.0895,"lo2":-89.0444,"dy":0.0017,"dx":0.0017,"nx":28,"ny":28,"refTime":"2024-08-06T03:00:00:Z","depth":"2","parameterNumber":3,"parameterNumberName":"V-component_of_CURRENTS"},"data":[0,0,0,0,0,0,0,0,0,0,0,0,0,0,0,0,0,0,0,0,0,0,0,0,0,0,0,0,0,0,0,0,0,0,0,0,0,0,0,0,0,0,0,0,0,0,0,0,0,0,0,0,0,0,0,0,0,0,0.0144,0.0145,0,0.0199,0.0199,0.02,0.0207,0.0206,0.0206,0.0206,0.015,0.0149,0.0148,0,0,0,0,0,0,0,0,0,0,0,0,0,0.0099,0.0099,0.0144,0.0145,0.0146,0.0199,0.0199,0.02,0.0207,0.0206,0.0206,0.0205,0.0151,0.0149,0.0148,0,0,0,0,0,0,0,0,0,0,0,0,0,0.0131,0.0099,0.0144,0.0157,0.0159,0.0199,0.0199,0.02,0.0207,0.0206,0.0206,0.0205,0.0151,0.015,0.0148,0.0148,0,0,0.0143,0.0142,0,0,0,0,0,0,0,0,0.0129,0.0132,0.0154,0.0156,0.0159,0.0197,0.0163,0.0178,0.0207,0.0187,0.0206,0.0205,0.0157,0.0155,0.0165,0.0145,0.0143,0.0142,0.0141,0.0141,0.014,0,0,0,0,0,0,0,0.0126,0.013,0.0164,0.0155,0.0158,0.0179,0.0182,0.0167,0.0171,0.0188,0.0189,0.0199,0.0157,0.0167,0.0164,0.0142,0.0143,0.0141,0.014,0.0139,0.0108,0.0108,0,0,0,0,0,0,0.0122,0.0128,0.0162,0.0166,0.0144,0.018,0.0183,0.0184,0.0173,0.0173,0.0199,0.0199,0.017,0.0166,0.0162,0.0181,0.0141,0.0139,0.0138,0.0107,0.0108,0.0108,0,0,0,0,0,0,0.012,0.0124,0.016,0.015,0.0156,0.0181,0.0182,0.0185,0.0197,0.0183,0.018,0.0208,0.017,0.0164,0.0137,0.0178,0.0138,0.0137,0.0107,0.0107,0.0108,0.0206,0,0,0,0,0,0,0.0118,0.0123,0.0122,0.0149,0.0157,0.0185,0.0182,0.0187,0.0204,0.0204,0.0189,0.0184,0.0169,0.0139,0.0135,0.0175,0.0135,0.0107,0.0107,0.0108,0.0203,0.021,0.0216,0,0,0,0,0,0.0116,0.0129,0.0121,0.0126,0.0154,0.0186,0.0191,0.0206,0.0205,0.0214,0.0191,0.0184,0.0139,0.0137,0.0132,0.0173,0.0107,0.0107,0.0108,0.02,0.0209,0.0216,0,0,0,0,0,0,0.0113,0.0131,0.0124,0.014,0.0158,0.0188,0.0203,0.021,0.0203,0.0199,0.0178,0.017,0.0163,0.0143,0.0142,0.0161,0.0126,0.0125,0.0198,0.0206,0.0212,0.0221,0.0134,0,0,0,0,0,0.011,0.0121,0.0137,0.0151,0.0158,0.0177,0.0192,0.0203,0.0205,0.0204,0.0188,0.0171,0.0163,0.0162,0.014,0.0149,0.0124,0.0171,0.0178,0.0184,0.0185,0.0174,0.0181,0.0109,0.0109,0.0109,0,0,0.0118,0.0125,0.0135,0.0151,0.0164,0.0194,0.0185,0.0213,0.0241,0.0195,0.021,0.0184,0.0163,0.0173,0.0171,0.0164,0.0191,0.0185,0.0191,0.0188,0.0176,0.0183,0.0189,0.011,0.0109,0.0109,0,0,0.0145,0.0138,0.0158,0.0171,0.0192,0.0209,0.0217,0.0238,0.0247,0.0252,0.0232,0.022,0.0207,0.021,0.0209,0.0234,0.0216,0.0238,0.0297,0.0288,0.0294,0.0299,0.0283,0.0286,0.0256,0.0256,0.0256,0,0.0142,0.0177,0.017,0.0192,0.0215,0.0218,0.0254,0.027,0.0279,0.0293,0.0261,0.0253,0.0229,0.0264,0.0274,0.0254,0.024,0.0277,0.0299,0.0304,0.0307,0.0289,0.0291,0.0261,0.026,0.026,0.0259,0,0.0195,0.0216,0.0232,0.0258,0.0276,0.0311,0.0328,0.0346,0.0348,0.0364,0.0373,0.0332,0.0335,0.0333,0.0313,0.0346,0.0324,0.0302,0.0287,0.0321,0.0299,0.03,0.0268,0.0266,0.0264,0.0263,0,0,0.0195,0.0256,0.0258,0.0289,0.0317,0.0345,0.0385,0.0433,0.0468,0.0458,0.0496,0.0477,0.0457,0.0451,0.0429,0.042,0.0433,0.0383,0.038,0.0381,0.0413,0.0383,0.038,0.0423,0.0423,0.0424,0.0391,0,0.0235,0.0303,0.0317,0.0388,0.0431,0.0441,0.0474,0.0511,0.0528,0.0558,0.0541,0.0549,0.0508,0.0505,0.0498,0.0444,0.0437,0.0443,0.0366,0.0363,0.0345,0.0381,0.0389,0.036,0.0391,0.0391,0.0391,0,0.028,0.0325,0.0399,0.0466,0.048,0.0511,0.0573,0.0602,0.0642,0.065,0.0669,0.0652,0.0656,0.0592,0.0545,0.0555,0.0494,0.0441,0.0439,0.0375,0.0335,0.0326,0.0359,0.0391,0.0391,0.0391,0.0391,0,0.0304,0.0382,0.0449,0.0472,0.0538,0.0565,0.0589,0.0629,0.0668,0.0705,0.0734,0.0734,0.0725,0.0664,0.0576,0.0564,0.0501,0.0471,0.0386,0.0383,0.0354,0.0348,0.0426,0.0426,0.0426,0.0426,0.0426,0,0.0349,0.0406,0.0467,0.0501,0.0572,0.0588,0.0654,0.0676,0.072,0.0775,0.0775,0.0806,0.0739,0.0707,0.0613,0.0511,0.0536,0.04,0.0377,0.0387,0.0384,0.0376,0.0371,0.0424,0.0425,0.0425,0.0425,0,0.0382,0.042,0.0502,0.0568,0.0585,0.0629,0.0693,0.0747,0.0767,0.0835,0.0851,0.0871,0.0822,0.0746,0.0639,0.0557,0.0455,0.0405,0.042,0.0399,0.0331,0.0331,0.0315,0.0314,0.0313,0.0312,0.0311,0,0.0427,0.0465,0.0537,0.0582,0.0615,0.068,0.0725,0.0762,0.0815,0.0871,0.0904,0.0894,0.0892,0.0742,0.0602,0.0456,0.0433,0.0352,0.0322,0.0343,0.0322,0.0324,0.0325,0.0324,0.0324,0.0323,0.0323,0,0.0497,0.05,0.0552,0.0629,0.0687,0.0765,0.0819,0.0866,0.0909,0.0959,0.0992,0.0989,0.0873,0.0744,0.0558,0.045,0.0381,0.0336,0.0368,0.0348,0.0348,0.0328,0.033,0.0319,0.0319,0.0319,0.032,0.032,0.0539,0.0571,0.0607,0.0681,0.0748,0.0814,0.0861,0.0926,0.0985,0.1023,0.1028,0.1006,0.0896,0.0649,0.0493,0.0329,0.0338,0.0267,0.027,0.0273,0.0277,0.0275,0.0233,0.0233,0.0233,0.0233,0.0233,0,0.0583,0.0595,0.0663,0.073,0.0792,0.0823,0.0903,0.0939,0.099,0.1031,0.104,0.0908,0.0782,0.0639,0.04,0.0258,0.025,0.0198,0.0232,0.0237,0.0242,0.0245,0.0191,0.0191,0.019,0.019,0,0,0.0598,0.0641,0.0651,0.0733,0.0787,0.0847,0.0881,0.0933,0.097,0.0983,0.0972,0.0967,0.0825,0.0641,0.0466,0.0329,0.0304,0.0288,0.0337,0.0404,0.0409,0.0299,0.0313,0,0,0,0,0]}],[{"header":{"parameterUnit":"m.s-1","parameterCategory":2,"la1":30.2991,"la2":30.254,"lo1":-89.0895,"lo2":-89.0444,"dy":0.0017,"dx":0.0017,"nx":28,"ny":28,"refTime":"2024-08-06T03:00:00:Z","depth":"4","parameterNumber":2,"parameterNumberName":"U-component_of_CURRENTS"},"data":[0,0,0,0,0,0,0,0,0,0,0,0,0,0,0,0,0,0,0,0,0,0,0,0,0,0,0,0,0,0,0,0,0,0,0,0,0,0,0,0,0,0,0,0,0,0,0,0,0,0,0,0,0,0,0,0,0,0,0.0683,0.0683,0,0.0646,0.0645,0.0644,0.0623,0.0623,0.0623,0.0624,0.0799,0.0804,0.0808,0,0,0,0,0,0,0,0,0,0,0,0,0,0.0729,0.0728,0.0683,0.0683,0.0683,0.0646,0.0645,0.0644,0.0623,0.0623,0.0624,0.0624,0.0798,0.0803,0.0809,0,0,0,0,0,0,0,0,0,0,0,0,0,0.0698,0.0727,0.0683,0.0671,0.067,0.0646,0.0645,0.0644,0.0623,0.0623,0.0624,0.0624,0.0796,0.0803,0.0809,0.0842,0,0,0.0829,0.0832,0,0,0,0,0,0,0,0,0.07,0.0696,0.0673,0.0672,0.067,0.0643,0.0725,0.0722,0.0623,0.0636,0.0624,0.0624,0.0769,0.0778,0.0761,0.085,0.0857,0.083,0.0834,0.0837,0.0839,0,0,0,0,0,0,0,0.0702,0.0698,0.0664,0.0673,0.0671,0.0665,0.066,0.0723,0.0702,0.0635,0.0635,0.0636,0.077,0.0755,0.0766,0.086,0.083,0.0836,0.084,0.0842,0.1043,0.1045,0,0,0,0,0,0,0.0714,0.0699,0.0666,0.0664,0.0691,0.0664,0.0659,0.0648,0.0697,0.0704,0.0636,0.0636,0.0743,0.0758,0.0773,0.0861,0.0837,0.0843,0.0847,0.1042,0.1044,0.1045,0,0,0,0,0,0,0.0715,0.0711,0.0667,0.0685,0.0679,0.0663,0.0651,0.0647,0.065,0.0695,0.0706,0.0646,0.0744,0.0763,0.0839,0.0867,0.0846,0.0852,0.104,0.1042,0.1044,0.101,0,0,0,0,0,0,0.0716,0.0711,0.0716,0.0685,0.0679,0.0656,0.0651,0.0646,0.0652,0.0651,0.0708,0.0722,0.0746,0.0828,0.0845,0.0875,0.0857,0.1039,0.1041,0.1044,0.1009,0.101,0.1011,0,0,0,0,0,0.0718,0.0708,0.0716,0.0713,0.0682,0.0657,0.0652,0.064,0.0652,0.0646,0.0692,0.0721,0.0857,0.0834,0.0854,0.0887,0.1037,0.1041,0.1043,0.1008,0.101,0.1011,0,0,0,0,0,0,0.0722,0.0705,0.0712,0.0698,0.0687,0.0655,0.0647,0.0653,0.0678,0.0698,0.0739,0.0756,0.0831,0.087,0.0844,0.0953,0.0953,0.096,0.092,0.0922,0.0923,0.0966,0.0863,0,0,0,0,0,0.0731,0.0726,0.0707,0.0701,0.0691,0.0679,0.0674,0.0676,0.069,0.0698,0.0716,0.0776,0.0855,0.0896,0.0946,0.1013,0.1046,0.1049,0.105,0.105,0.1099,0.1164,0.1175,0.1055,0.1055,0.1055,0,0,0.0728,0.0725,0.0719,0.0704,0.0689,0.0677,0.0674,0.0672,0.0683,0.0724,0.0728,0.078,0.0873,0.0932,0.0971,0.0972,0.1088,0.1054,0.1054,0.1104,0.1168,0.118,0.1191,0.1057,0.1057,0.1057,0,0,0.0718,0.0717,0.0707,0.0708,0.0709,0.0692,0.07,0.0669,0.0675,0.0709,0.0746,0.0814,0.0888,0.0949,0.1007,0.1057,0.1088,0.1073,0.112,0.118,0.119,0.12,0.1188,0.1197,0.1076,0.1076,0.1076,0,0.073,0.0708,0.0701,0.0703,0.0713,0.0702,0.0706,0.0702,0.0701,0.0746,0.0716,0.0856,0.0906,0.1043,0.1055,0.1062,0.1083,0.1099,0.118,0.1192,0.1202,0.1188,0.1199,0.1075,0.1075,0.1075,0.1075,0,0.0702,0.0708,0.0699,0.0698,0.071,0.0706,0.0714,0.0722,0.0732,0.0754,0.0855,0.0895,0.1,0.101,0.1061,0.1176,0.1156,0.1164,0.1171,0.1212,0.1194,0.1205,0.1073,0.1073,0.1074,0.1074,0,0,0.0676,0.0679,0.0684,0.0706,0.0718,0.0725,0.0759,0.0802,0.0862,0.0859,0.0933,0.1045,0.1077,0.1147,0.1185,0.1239,0.1292,0.1246,0.125,0.1223,0.1385,0.1264,0.1265,0.1318,0.1322,0.1324,0.1314,0,0.0659,0.0662,0.0681,0.0706,0.0703,0.0753,0.0797,0.0866,0.09,0.0947,0.1032,0.1113,0.1125,0.1182,0.124,0.1296,0.1336,0.1293,0.1363,0.1364,0.1245,0.1281,0.1336,0.1323,0.1326,0.1328,0.1329,0,0.0637,0.0637,0.0657,0.074,0.0752,0.0785,0.0894,0.0941,0.1046,0.1088,0.1182,0.1219,0.1325,0.13,0.1418,0.1392,0.1413,0.1425,0.1424,0.1354,0.127,0.1295,0.1351,0.135,0.1348,0.1347,0.1345,0,0.0614,0.0647,0.0668,0.0687,0.0754,0.0822,0.0882,0.1001,0.1086,0.1181,0.1236,0.1338,0.1388,0.145,0.1473,0.1468,0.1553,0.1535,0.1436,0.1423,0.1547,0.1538,0.1631,0.1631,0.1631,0.1631,0.1631,0,0.059,0.0618,0.0667,0.0671,0.075,0.0837,0.096,0.1029,0.1167,0.1257,0.1318,0.1367,0.1441,0.1479,0.1496,0.1488,0.1572,0.1468,0.1439,0.152,0.1509,0.155,0.1541,0.1631,0.1631,0.1631,0.1631,0,0.0577,0.0591,0.0625,0.0698,0.0734,0.0811,0.0993,0.1082,0.1212,0.1312,0.1351,0.1428,0.1462,0.1491,0.1553,0.1504,0.1511,0.1488,0.1532,0.15,0.1326,0.1316,0.138,0.1376,0.1373,0.137,0.1368,0,0.0564,0.0573,0.0639,0.0668,0.0704,0.0828,0.0916,0.1078,0.1159,0.1324,0.1343,0.1425,0.1447,0.1414,0.1458,0.145,0.1447,0.1413,0.1427,0.1349,0.1314,0.1308,0.1302,0.1363,0.1362,0.1361,0.136,0,0.0543,0.0583,0.0615,0.0653,0.0723,0.0808,0.0928,0.0995,0.1165,0.1279,0.1315,0.1331,0.1345,0.1345,0.1342,0.1343,0.1416,0.138,0.1387,0.14,0.1329,0.1296,0.1294,0.1349,0.1351,0.1352,0.1353,0,0.0558,0.0582,0.062,0.0668,0.0729,0.0762,0.0839,0.0929,0.1036,0.1206,0.1197,0.1262,0.1323,0.1289,0.1288,0.1273,0.1268,0.1222,0.1237,0.125,0.1214,0.1106,0.1055,0,0,0,0,0,0.0565,0.059,0.0628,0.0657,0.071,0.0733,0.0837,0.0916,0.1054,0.1051,0.1141,0.1146,0.1154,0.1179,0.1141,0.123,0.1268,0.1178,0.1221,0.1288,0.1301,0.1271,0,0,0,0,0,0,0.0574,0.0608,0.062,0.0635,0.0654,0.0696,0.0751,0.0832,0.0845,0.0977,0.0984,0.1069,0.1088,0.1168,0.1117,0.1126,0.1126,0.1227,0.1224,0.1281,0.1293,0.1303,0.1277,0,0,0,0,0]},{"header":{"parameterUnit":"m.s-1","parameterCategory":2,"la1":30.2991,"la2":30.254,"lo1":-89.0895,"lo2":-89.0444,"dy":0.0017,"dx":0.0017,"nx":28,"ny":28,"refTime":"2024-08-06T03:00:00:Z","depth":"4","parameterNumber":3,"parameterNumberName":"V-component_of_CURRENTS"},"data":[0,0,0,0,0,0,0,0,0,0,0,0,0,0,0,0,0,0,0,0,0,0,0,0,0,0,0,0,0,0,0,0,0,0,0,0,0,0,0,0,0,0,0,0,0,0,0,0,0,0,0,0,0,0,0,0,0,0,0.0201,0.0202,0,0.0232,0.0232,0.0232,0.0245,0.0245,0.0245,0.0246,0.0209,0.0208,0.0207,0,0,0,0,0,0,0,0,0,0,0,0,0,0.0151,0.0151,0.0201,0.0202,0.0203,0.0232,0.0232,0.0232,0.0245,0.0245,0.0246,0.0246,0.0209,0.0208,0.0207,0,0,0,0,0,0,0,0,0,0,0,0,0,0.0173,0.0152,0.0201,0.0215,0.0217,0.0232,0.0232,0.0232,0.0245,0.0245,0.0246,0.0246,0.021,0.0208,0.0206,0.0186,0,0,0.0201,0.02,0,0,0,0,0,0,0,0,0.0171,0.0174,0.0212,0.0214,0.0217,0.0239,0.0202,0.0215,0.0245,0.023,0.0246,0.0246,0.0215,0.0213,0.0213,0.0184,0.0183,0.02,0.0199,0.0199,0.0198,0,0,0,0,0,0,0,0.017,0.0173,0.0209,0.0213,0.0216,0.022,0.0223,0.0204,0.0215,0.0231,0.0233,0.0243,0.0215,0.0215,0.0212,0.0182,0.0201,0.0199,0.0198,0.0197,0.0133,0.0133,0,0,0,0,0,0,0.0174,0.0171,0.0208,0.0211,0.0199,0.0221,0.0224,0.0228,0.0217,0.0218,0.0243,0.0244,0.0218,0.0214,0.0211,0.0209,0.0199,0.0197,0.0196,0.0134,0.0133,0.0132,0,0,0,0,0,0,0.0172,0.0176,0.0207,0.0195,0.02,0.0222,0.0225,0.0228,0.024,0.0227,0.0226,0.0253,0.0218,0.0213,0.0199,0.0207,0.0196,0.0194,0.0134,0.0134,0.0133,0.0191,0,0,0,0,0,0,0.017,0.0175,0.0179,0.0195,0.0201,0.0221,0.0226,0.0229,0.0246,0.0248,0.0235,0.0232,0.0218,0.0202,0.0198,0.0204,0.0193,0.0135,0.0134,0.0133,0.0189,0.0192,0.0194,0,0,0,0,0,0.0168,0.0184,0.0178,0.0183,0.0205,0.0222,0.0224,0.0239,0.0246,0.025,0.0241,0.0233,0.0192,0.0201,0.0195,0.0201,0.0136,0.0134,0.0133,0.0188,0.0191,0.0194,0,0,0,0,0,0,0.0165,0.0188,0.0182,0.0202,0.0209,0.0225,0.0238,0.0244,0.0242,0.0245,0.0229,0.0225,0.0214,0.0193,0.0203,0.0175,0.016,0.0158,0.0204,0.0207,0.0209,0.0216,0.0191,0,0,0,0,0,0.0164,0.0182,0.0192,0.0207,0.0212,0.0222,0.0232,0.0241,0.0244,0.0245,0.0238,0.022,0.0202,0.0194,0.0174,0.0161,0.0136,0.0157,0.0159,0.0162,0.0162,0.0128,0.0128,0.0128,0.0128,0.0128,0,0,0.0172,0.0183,0.0195,0.0207,0.0214,0.0225,0.0229,0.025,0.0257,0.0239,0.0246,0.023,0.0199,0.0188,0.018,0.0174,0.0148,0.016,0.0163,0.0161,0.0127,0.0127,0.0127,0.0127,0.0127,0.0128,0,0,0.0196,0.0198,0.0219,0.0224,0.0238,0.0239,0.0247,0.0262,0.0266,0.0267,0.0254,0.0239,0.022,0.0198,0.0184,0.018,0.0161,0.0177,0.0199,0.0167,0.0167,0.0167,0.0142,0.0139,0.0179,0.0179,0.0179,0,0.0206,0.0223,0.0226,0.024,0.0252,0.0246,0.0265,0.0262,0.0272,0.0277,0.0274,0.0243,0.022,0.0199,0.0203,0.0186,0.0172,0.0199,0.0172,0.0172,0.017,0.0144,0.0141,0.0182,0.0182,0.0181,0.0181,0,0.0238,0.025,0.0264,0.0274,0.0281,0.03,0.0296,0.0303,0.0307,0.0305,0.0295,0.0261,0.0244,0.0233,0.0222,0.0204,0.0198,0.0182,0.0173,0.0174,0.0146,0.0141,0.0186,0.0185,0.0184,0.0183,0,0,0.0268,0.0286,0.0289,0.0301,0.0304,0.0319,0.0324,0.0331,0.034,0.033,0.0333,0.03,0.029,0.027,0.0246,0.022,0.0203,0.021,0.0207,0.0199,0.0146,0.0161,0.0156,0.0195,0.0194,0.0193,0.0133,0,0.0293,0.0326,0.0326,0.0355,0.0373,0.0369,0.0378,0.0381,0.037,0.0365,0.0328,0.0316,0.0298,0.0295,0.0265,0.0218,0.0192,0.0222,0.0133,0.013,0.0155,0.0151,0.0191,0.0129,0.0127,0.0127,0.0126,0,0.0319,0.0339,0.0377,0.0404,0.0413,0.0433,0.0449,0.0452,0.0432,0.0423,0.0397,0.0366,0.0327,0.0306,0.0227,0.0254,0.0207,0.0166,0.0162,0.0152,0.0136,0.0122,0.0116,0.0117,0.0118,0.0118,0.0119,0,0.0339,0.0373,0.0408,0.0417,0.0445,0.0474,0.049,0.0485,0.049,0.0457,0.0453,0.0396,0.0371,0.0303,0.023,0.0232,0.0139,0.0122,0.0086,0.0087,0.0067,0.0068,0.006,0.006,0.006,0.006,0.006,0,0.0362,0.039,0.0431,0.0451,0.0499,0.0513,0.0551,0.0547,0.0545,0.0543,0.0489,0.0464,0.0372,0.031,0.0236,0.0154,0.0141,0.009,0.0071,0.0092,0.0096,0.0064,0.0065,0.0058,0.0058,0.0059,0.0059,0,0.0373,0.0398,0.0439,0.0488,0.051,0.0546,0.0598,0.0616,0.0611,0.06,0.0595,0.0523,0.0445,0.0351,0.0233,0.0171,0.0081,0.0053,0.0091,0.0075,0.0046,0.0051,0.0001,0.0001,0.0001,0.0001,0.0001,0,0.0383,0.0405,0.046,0.0495,0.0526,0.0585,0.062,0.0642,0.0647,0.0629,0.0614,0.0557,0.0497,0.0342,0.0241,0.0104,0.0084,0.0033,0.0032,0.0053,0.004,0.0045,0.0049,0.0001,0.0001,0.0001,0.0001,0,0.0392,0.041,0.0436,0.0502,0.0557,0.0605,0.0655,0.0669,0.0678,0.0679,0.063,0.0556,0.0466,0.0345,0.0251,0.0146,0.0062,0.0033,0.0032,0.003,0.0052,0.0041,0.0045,0.0001,0.0001,0.0001,0.0001,0,0.0391,0.0404,0.044,0.0498,0.0557,0.0605,0.0641,0.066,0.0673,0.0657,0.0639,0.0551,0.0503,0.0366,0.0269,0.0183,0.0152,0.0107,0.0101,0.01,0.015,0.0194,0.0172,0,0,0,0,0,0.0386,0.0398,0.0442,0.0497,0.0553,0.0593,0.0644,0.0673,0.0686,0.0657,0.0654,0.0572,0.0442,0.0377,0.0293,0.026,0.0132,0.0157,0.0075,0.0002,0.0002,0.0045,0,0,0,0,0,0,0.0377,0.041,0.0425,0.0478,0.0522,0.0581,0.0619,0.064,0.0621,0.0628,0.056,0.0539,0.0412,0.0493,0.0288,0.0262,0.0194,0.0101,0.0099,0.0002,0.0002,0.0002,0.0047,0,0,0,0,0]}]]